EW2561 Weather Reports


Display with metric or nautical units.
time (UTC)temp
F
wind
direction
speed
MPH
gust
MPH
rain 1hr
in
rain 24hr
in
rain mn
in
humidity
%
barometer
mb
20260510234201 50 359 1.0 5.0 0.05 0.05 0.04 86 1004.2
20260510233915 50 222 1.0 5.0 0.03 0.03 0.02 86 1004.2
20260510233139 51 18 2.0 5.0 0.02 0.02 0.02 85 1004.3
20260510232629 51 113 2.0 5.0 0.02 0.02 0.01 83 1004.4
20260510232353 51 32 2.0 6.0 0.01 0.01 0.01 82 1004.4
20260510231602 52 38 2.0 6.0 0.00 0.00 0.00 81 1004.5
20260510231100 52 59 2.0 8.0 0.00 0.00 0.00 80 1004.6
20260510230544 52 38 3.0 8.0 0.00 0.00 0.00 79 1004.5
20260510230259 53 2 3.0 7.0 0.00 0.00 0.00 79 1004.6
20260510225537 53 6 2.0 7.0 0.00 0.00 0.00 78 1004.6
20260510225032 53 20 2.0 9.0 0.00 0.00 0.00 78 1004.6
20260510224527 53 280 2.0 9.0 0.00 0.00 0.00 77 1004.6
20260510224008 54 92 2.0 5.0 0.00 0.00 0.00 76 1004.7
20260510223507 54 16 2.0 8.0 0.00 0.00 0.00 76 1004.7
20260510222937 54 346 2.0 8.0 0.00 0.00 0.00 75 1004.7
20260510222654 54 82 2.0 9.0 0.00 0.00 0.00 76 1004.7
20260510222132 54 359 2.0 9.0 0.00 0.00 0.00 76 1004.7
20260510221409 54 102 2.0 8.0 0.00 0.00 0.00 76 1004.8
20260510220908 54 65 3.0 8.0 0.00 0.00 0.00 75 1004.8
20260510220338 54 1 3.0 6.0 0.00 0.00 0.00 75 1004.8
20260510215839 55 51 2.0 9.0 0.00 0.00 0.00 74 1004.8
20260510215309 55 99 2.0 7.0 0.00 0.00 0.00 74 1004.9
20260510214801 55 354 3.0 6.0 0.00 0.00 0.00 74 1005.0
20260510214301 55 300 3.0 9.0 0.00 0.00 0.00 74 1005.0
20260510213957 55 11 3.0 9.0 0.00 0.00 0.00 74 1005.0
20260510213223 55 174 4.0 9.0 0.00 0.00 0.00 74 1005.0
20260510212701 55 0 4.0 12.0 0.00 0.00 0.00 74 1005.1
20260510212147 56 338 4.0 12.0 0.00 0.00 0.00 74 1005.2
20260510211629 56 1 3.0 8.0 0.00 0.00 0.00 74 1005.2
20260510211129 56 12 2.0 6.0 0.00 0.00 0.00 74 1005.2
20260510210601 56 82 2.0 6.0 0.00 0.00 0.00 74 1005.2
20260510210101 57 0 2.0 8.0 0.00 0.00 0.00 74 1005.3
20260510205603 57 6 3.0 8.0 0.00 0.00 0.00 73 1005.3
20260510205031 57 24 3.0 8.0 0.00 0.00 0.00 73 1005.3
20260510204518 57 53 3.0 8.0 0.00 0.00 0.00 73 1005.4
20260510204003 57 10 3.0 7.0 0.00 0.00 0.00 73 1005.4
20260510203502 58 58 2.0 10.0 0.00 0.00 0.00 72 1005.4
20260510203004 58 333 3.0 10.0 0.00 0.00 0.00 72 1005.4
20260510202432 58 0 2.0 10.0 0.00 0.00 0.00 72 1005.4
20260510202151 58 0 2.0 10.0 0.00 0.00 0.00 71 1005.4
20260510201431 58 5 3.0 10.0 0.00 0.00 0.00 71 1005.3
20260510201152 58 348 4.0 10.0 0.00 0.00 0.00 71 1005.1
20260510200403 59 344 4.0 11.0 0.00 0.00 0.00 70 1005.0
20260510195902 59 32 4.0 11.0 0.00 0.00 0.00 70 1005.0
20260510195625 59 25 2.0 8.0 0.00 0.00 0.00 70 1005.0
20260510194902 60 49 2.0 9.0 0.00 0.00 0.00 69 1005.0
20260510194331 60 0 3.0 9.0 0.00 0.00 0.00 69 1005.0
20260510193832 60 6 4.0 9.0 0.00 0.00 0.00 68 1005.0
20260510193330 60 356 3.0 9.0 0.00 0.00 0.00 68 1004.9
20260510192804 60 22 3.0 11.0 0.00 0.00 0.00 67 1005.0
20260510192306 61 10 4.0 13.0 0.00 0.00 0.00 67 1004.9
20260510191802 61 27 4.0 13.0 0.00 0.00 0.00 66 1004.8
20260510191231 61 30 4.0 10.0 0.00 0.00 0.00 66 1004.8
20260510191001 62 35 3.0 10.0 0.00 0.00 0.00 65 1004.8
20260510190227 62 293 3.0 11.0 0.00 0.00 0.00 65 1004.8
20260510185710 62 75 2.0 11.0 0.00 0.00 0.00 64 1004.9
20260510185203 62 0 2.0 7.0 0.00 0.00 0.00 64 1004.9
20260510184702 63 359 3.0 7.0 0.00 0.00 0.00 63 1004.9
20260510184204 63 359 3.0 7.0 0.00 0.00 0.00 63 1004.9
20260510183702 63 57 3.0 7.0 0.00 0.00 0.00 63 1004.9
20260510183138 63 354 2.0 7.0 0.00 0.00 0.00 63 1004.9
20260510182631 63 134 3.0 7.0 0.00 0.00 0.00 62 1004.9
20260510182130 64 350 3.0 7.0 0.00 0.00 0.00 62 1004.9
20260510181603 64 77 2.0 7.0 0.00 0.00 0.00 62 1004.9
20260510181104 64 15 2.0 5.0 0.00 0.00 0.00 61 1005.0
20260510180604 64 23 2.0 7.0 0.00 0.00 0.00 61 1005.0
20260510180559 64 20 3.0 7.0 0.00 0.00 0.00 61 1005.0
20260510175759 64 30 2.0 6.0 0.00 0.00 0.00 60 1005.1
20260510175035 65 321 2.0 7.0 0.00 0.00 0.00 60 1005.2
20260510174731 65 54 2.0 7.0 0.00 0.00 0.00 60 1005.2
20260510174007 65 1 1.0 4.0 0.00 0.00 0.00 60 1005.3
20260510173436 65 45 2.0 6.0 0.00 0.00 0.00 60 1005.4
20260510172934 65 75 2.0 6.0 0.00 0.00 0.00 59 1005.5
20260510172429 66 104 2.0 8.0 0.00 0.00 0.00 58 1005.5
20260510171909 66 4 2.0 8.0 0.00 0.00 0.00 59 1005.6
20260510171407 66 60 2.0 7.0 0.00 0.00 0.00 58 1005.6
20260510170835 66 58 2.0 6.0 0.00 0.00 0.00 58 1005.5
20260510170329 66 106 2.0 8.0 0.00 0.00 0.00 57 1005.5
20260510165807 66 64 2.0 8.0 0.00 0.00 0.00 58 1005.6
20260510165307 66 90 3.0 8.0 0.00 0.00 0.00 57 1005.7
20260510165217 66 93 2.0 8.0 0.00 0.00 0.00 57 1005.7
20260510164456 67 32 1.0 7.0 0.00 0.00 0.00 58 1005.8
20260510163723 67 56 2.0 4.0 0.00 0.00 0.00 58 1005.8
20260510163208 67 53 3.0 8.0 0.00 0.00 0.00 57 1005.8
20260510162702 67 105 3.0 8.0 0.00 0.00 0.00 56 1005.8
20260510162204 68 53 3.0 7.0 0.00 0.00 0.00 56 1005.7
20260510161703 68 82 2.0 7.0 0.00 0.00 0.00 57 1005.7
20260510161146 68 351 2.0 7.0 0.00 0.00 0.00 56 1005.8
20260510160631 68 13 3.0 7.0 0.00 0.00 0.00 57 1005.8
20260510160132 68 7 3.0 9.0 0.00 0.00 0.00 55 1005.8
20260510155603 68 11 3.0 9.0 0.00 0.00 0.00 56 1005.9
20260510155102 68 8 3.0 10.0 0.00 0.00 0.00 55 1005.9
20260510154604 68 40 4.0 10.0 0.00 0.00 0.00 56 1005.9
20260510154529 69 349 3.0 8.0 0.00 0.00 0.00 55 1006.0
20260510154525 68 303 4.0 9.0 0.00 0.00 0.00 56 1006.0
20260510153102 69 345 3.0 9.0 0.00 0.00 0.00 54 1006.1
20260510152532 69 314 3.0 9.0 0.00 0.00 0.00 55 1006.2
20260510152033 70 69 3.0 8.0 0.00 0.00 0.00 53 1006.2
20260510151532 70 88 2.0 8.0 0.00 0.00 0.00 53 1006.4
20260510151031 70 295 2.0 9.0 0.00 0.00 0.00 52 1006.4
20260510150530 69 143 3.0 9.0 0.00 0.00 0.00 53 1006.5
20260510150223 69 3 3.0 8.0 0.00 0.00 0.00 52 1006.6
20260510145502 70 1 3.0 8.0 0.00 0.00 0.00 51 1006.7
20260510144931 69 162 3.0 8.0 0.00 0.00 0.00 51 1006.7
20260510144432 70 359 2.0 8.0 0.00 0.00 0.00 51 1006.7
20260510144152 70 40 2.0 6.0 0.00 0.00 0.00 52 1006.9
20260510143431 70 110 2.0 3.0 0.00 0.00 0.00 51 1006.9
20260510142930 70 82 3.0 9.0 0.00 0.00 0.00 51 1006.9
20260510142849 69 65 3.0 9.0 0.00 0.00 0.00 52 1007.0
20260510142623 69 65 3.0 9.0 0.00 0.00 0.00 52 1007.0
20260510142407 69 65 3.0 9.0 0.00 0.00 0.00 52 1007.0
20260510142126 69 316 3.0 9.0 0.00 0.00 0.00 52 1007.2
20260510141625 69 27 3.0 5.0 0.00 0.00 0.00 52 1007.2
20260510141432 69 27 3.0 5.0 0.00 0.00 0.00 52 1007.2
20260510141059 68 359 3.0 9.0 0.00 0.00 0.00 52 1007.4
20260510140329 69 340 3.0 8.0 0.00 0.00 0.00 53 1007.4
20260510140033 69 354 2.0 6.0 0.00 0.00 0.00 52 1007.5
20260510135522 69 101 2.0 7.0 0.00 0.00 0.00 53 1007.6
20260510135000 69 349 3.0 7.0 0.00 0.00 0.00 53 1007.7
20260510134454 68 53 3.0 10.0 0.00 0.00 0.00 56 1007.7
20260510133732 68 82 4.0 10.0 0.00 0.00 0.00 53 1007.8
20260510133230 68 25 4.0 9.0 0.00 0.00 0.00 53 1007.9
20260510132957 68 7 3.0 11.0 0.00 0.00 0.00 54 1007.9
20260510132235 68 18 3.0 11.0 0.00 0.00 0.00 56 1008.0
20260510131953 68 18 3.0 6.0 0.00 0.00 0.00 55 1008.0
20260510131729 68 18 3.0 6.0 0.00 0.00 0.00 55 1008.0
20260510131208 68 33 3.0 10.0 0.00 0.00 0.00 58 1008.2
20260510130701 68 1 4.0 9.0 0.00 0.00 0.00 56 1008.3
20260510130143 68 10 3.0 10.0 0.00 0.00 0.00 57 1008.4
20260510125904 68 0 3.0 10.0 0.00 0.00 0.00 58 1008.4
20260510125652 68 0 3.0 10.0 0.00 0.00 0.00 58 1008.4
20260510125132 67 357 3.0 10.0 0.00 0.00 0.00 59 1008.5
20260510124632 67 347 3.0 10.0 0.00 0.00 0.00 59 1008.6
20260510124131 67 4 3.0 6.0 0.00 0.00 0.00 58 1008.6
20260510124048 67 1 2.0 6.0 0.00 0.00 0.00 60 1008.7
20260510123828 67 1 2.0 6.0 0.00 0.00 0.00 60 1008.7
20260510123326 67 75 3.0 10.0 0.00 0.00 0.00 60 1008.8
20260510122531 67 138 3.0 10.0 0.00 0.00 0.00 60 1008.9
20260510122257 67 336 3.0 8.0 0.00 0.00 0.00 59 1008.9
20260510121531 67 334 3.0 10.0 0.00 0.00 0.00 60 1008.9
20260510121031 67 29 3.0 10.0 0.00 0.00 0.00 59 1009.0
20260510120531 67 38 3.0 9.0 0.00 0.00 0.00 60 1009.1
20260510120004 66 0 3.0 11.0 0.00 0.00 0.00 61 1009.1
20260510115721 66 240 3.0 11.0 0.00 0.00 0.00 60 1009.2
20260510114931 66 1 3.0 9.0 0.00 0.00 0.00 60 1009.2
20260510114428 66 281 3.0 7.0 0.00 0.00 0.00 60 1009.3
20260510113924 66 29 3.0 8.0 0.00 0.00 0.00 61 1009.4
20260510113424 65 301 3.0 8.0 0.00 0.00 0.00 62 1009.4
20260510113126 65 66 4.0 9.0 0.00 0.00 0.00 61 1009.4
20260510112402 65 20 3.0 9.0 0.00 0.00 0.00 61 1009.5
20260510111902 65 23 3.0 7.0 0.00 0.00 0.00 61 1009.5
20260510111402 65 314 3.0 6.0 0.00 0.00 0.00 62 1009.6
20260510111131 65 37 3.0 11.0 0.00 0.00 0.00 61 1009.6
20260510110402 65 27 2.0 11.0 0.00 0.00 0.00 60 1009.7
20260510110127 65 39 2.0 6.0 0.00 0.00 0.00 62 1009.6
20260510105331 65 1 3.0 9.0 0.00 0.00 0.00 61 1009.7
20260510104831 65 342 2.0 9.0 0.00 0.00 0.00 61 1009.8
20260510104527 64 1 2.0 8.0 0.00 0.00 0.00 63 1009.8
20260510103802 64 2 3.0 8.0 0.00 0.00 0.00 61 1009.8
20260510103305 65 359 2.0 7.0 0.00 0.00 0.00 62 1009.9
20260510102802 64 317 2.0 6.0 0.00 0.00 0.00 62 1009.9
20260510102747 64 31 2.0 6.0 0.00 0.00 0.00 63 1010.0
20260510101802 64 359 2.0 6.0 0.00 0.00 0.00 64 1010.0
20260510101309 63 0 2.0 6.0 0.00 0.00 0.00 66 1010.0
20260510100737 63 68 2.0 6.0 0.00 0.00 0.00 66 1010.1
20260510100232 62 88 2.0 5.0 0.00 0.00 0.00 66 1010.1
20260510095731 62 106 2.0 5.0 0.00 0.00 0.00 67 1010.2
20260510095225 62 1 2.0 5.0 0.00 0.00 0.00 66 1010.2
20260510094724 62 38 2.0 7.0 0.00 0.00 0.00 66 1010.3
20260510094223 62 344 3.0 7.0 0.00 0.00 0.00 65 1010.4
20260510093723 63 58 2.0 6.0 0.00 0.00 0.00 67 1010.5
20260510093213 62 41 3.0 6.0 0.00 0.00 0.00 66 1010.5
20260510092704 63 356 3.0 6.0 0.00 0.00 0.00 66 1010.5
20260510092202 63 347 2.0 7.0 0.00 0.00 0.00 67 1010.5
20260510091641 63 359 2.0 7.0 0.00 0.00 0.00 66 1010.6
20260510091132 62 92 3.0 7.0 0.00 0.00 0.00 67 1010.6
20260510090632 62 4 3.0 7.0 0.00 0.00 0.00 68 1010.6
20260510090131 62 359 3.0 7.0 0.00 0.00 0.00 68 1010.7
20260510085631 63 27 2.0 7.0 0.00 0.00 0.00 67 1010.7
20260510085104 62 25 2.0 6.0 0.00 0.00 0.00 67 1010.8
20260510084823 62 6 2.0 6.0 0.00 0.00 0.00 68 1010.8
20260510084033 61 110 2.0 5.0 0.00 0.00 0.00 70 1010.9
20260510083754 61 18 2.0 5.0 0.00 0.00 0.00 72 1010.8
20260510083250 60 28 2.0 5.0 0.00 0.00 0.00 72 1010.9
20260510082525 60 14 2.0 8.0 0.00 0.00 0.00 74 1010.9
20260510082003 59 57 2.0 8.0 0.00 0.00 0.00 75 1010.9
20260510081431 59 63 2.0 5.0 0.00 0.00 0.00 77 1011.0
20260510080932 58 1 2.0 7.0 0.00 0.00 0.00 77 1011.0
20260510080424 58 282 2.0 5.0 0.00 0.00 0.00 79 1010.9
20260510080149 57 32 3.0 7.0 0.00 0.00 0.00 79 1011.0
20260510075403 57 67 2.0 7.0 0.00 0.00 0.00 80 1011.0
20260510074902 56 32 2.0 7.0 0.00 0.00 0.00 81 1011.1
20260510074402 56 343 3.0 6.0 0.00 0.00 0.00 82 1011.0
20260510074130 56 332 3.0 8.0 0.00 0.00 0.00 82 1011.1
20260510073600 56 33 2.0 6.0 0.00 0.00 0.00 82 1011.1
20260510073051 55 11 2.0 7.0 0.00 0.00 0.00 83 1011.1
20260510072555 55 44 3.0 7.0 0.00 0.00 0.00 83 1011.1
20260510072027 55 8 3.0 7.0 0.00 0.00 0.00 83 1011.1
20260510071531 55 359 2.0 7.0 0.00 0.00 0.00 84 1011.1
20260510070956 54 15 2.0 7.0 0.00 0.00 0.00 85 1011.2
20260510070222 54 30 2.0 7.0 0.00 0.00 0.00 85 1011.1
20260510065927 54 46 2.0 5.0 0.00 0.00 0.00 86 1011.1
20260510065145 53 18 2.0 5.0 0.00 0.00 0.00 86 1011.1
20260510064630 53 8 2.0 5.0 0.00 0.00 0.00 86 1011.1
20260510064131 53 359 2.0 5.0 0.00 0.00 0.00 86 1011.1
20260510063632 53 76 2.0 5.0 0.00 0.00 0.00 87 1011.1
20260510063132 53 346 2.0 5.0 0.00 0.00 0.00 87 1011.0
20260510062629 52 1 2.0 5.0 0.00 0.00 0.00 88 1011.0
20260510062129 52 1 2.0 5.0 0.00 0.00 0.00 87 1011.0
20260510061627 52 349 1.0 2.0 0.00 0.00 0.00 88 1011.0
20260510061103 52 23 2.0 5.0 0.00 0.00 0.00 88 1011.0
20260510060548 52 68 2.0 5.0 0.00 0.00 0.00 88 1011.0
20260510060031 51 91 2.0 5.0 0.00 0.00 0.00 88 1011.0
20260510055532 51 106 1.0 5.0 0.00 0.00 0.00 88 1011.0
20260510055032 51 36 1.0 4.0 0.00 0.00 0.00 88 1011.0
20260510055018 51 33 1.0 4.0 0.00 0.00 0.00 88 1011.0
20260510054030 51 0 1.0 4.0 0.00 0.00 0.00 88 1011.1
20260510053526 51 13 1.0 4.0 0.00 0.00 0.00 88 1011.1
20260510053021 51 52 0.0 3.0 0.00 0.00 0.00 88 1011.0
20260510052504 51 25 0.0 3.0 0.00 0.00 0.00 88 1011.0
20260510052230 51 25 0.0 3.0 0.00 0.00 0.00 88 1011.0
20260510051654 50 1 1.0 3.0 0.00 0.00 0.00 88 1011.0
20260510050943 50 1 1.0 3.0 0.00 0.00 0.00 88 1011.1
20260510050418 50 15 1.0 3.0 0.00 0.00 0.00 88 1011.1
20260510045904 50 359 1.0 3.0 0.00 0.00 0.00 88 1011.1
20260510045403 50 9 0.0 3.0 0.00 0.00 0.00 88 1011.1
20260510044833 50 9 1.0 3.0 0.00 0.00 0.00 88 1011.0
20260510044330 50 7 1.0 3.0 0.00 0.00 0.00 88 1011.0
20260510043835 50 8 1.0 3.0 0.00 0.00 0.00 88 1011.0
20260510043308 50 23 0.0 1.0 0.00 0.00 0.00 88 1010.9
20260510042807 50 23 0.0 2.0 0.00 0.00 0.00 88 1010.9
20260510042236 50 23 0.0 2.0 0.00 0.00 0.00 88 1010.9
20260510041735 50 23 1.0 3.0 0.00 0.00 0.00 88 1010.9
20260510041231 50 18 1.0 3.0 0.00 0.00 0.00 89 1011.0
20260510040731 49 73 0.0 1.0 0.00 0.00 0.00 90 1011.1
20260510040230 49 89 0.0 1.0 0.00 0.00 0.00 90 1011.0
20260510035726 49 89 1.0 3.0 0.00 0.00 0.00 91 1011.0
20260510035212 49 89 1.0 3.0 0.00 0.00 0.00 92 1011.0
20260510034704 49 75 0.0 2.0 0.00 0.00 0.00 93 1011.1
20260510034141 48 15 0.0 2.0 0.00 0.00 0.00 94 1011.1
20260510033632 48 15 0.0 2.0 0.00 0.00 0.00 94 1011.1
20260510033131 48 65 0.0 2.0 0.00 0.00 0.00 95 1011.1
20260510032852 48 11 0.0 0.0 0.00 0.00 0.00 95 1011.0
20260510032352 47 11 0.0 0.0 0.00 0.00 0.00 95 1011.1
20260510031847 47 11 0.0 0.0 0.00 0.00 0.00 94 1011.1
20260510031105 47 11 0.0 0.0 0.00 0.00 0.00 94 1011.0
20260510030744 47 11 0.0 0.0 0.00 0.00 0.00 94 1011.0
20260510030734 47 11 0.0 0.0 0.00 0.00 0.00 94 1011.1
20260510025524 47 11 0.0 0.0 0.00 0.00 0.00 94 1011.2
20260510025005 47 11 0.0 0.0 0.00 0.00 0.00 93 1011.2
20260510024909 47 11 0.0 0.0 0.00 0.00 0.00 93 1011.2
20260510024003 48 11 0.0 0.0 0.00 0.00 0.00 93 1011.2
20260510023721 48 11 0.0 0.0 0.00 0.00 0.00 94 1011.2
20260510023003 48 11 0.0 0.0 0.00 0.00 0.00 93 1011.2
20260510022431 48 11 0.0 0.0 0.00 0.00 0.00 93 1011.1
20260510021930 48 11 0.0 0.0 0.00 0.00 0.00 93 1011.2
20260510021419 48 11 0.0 0.0 0.00 0.00 0.00 93 1011.2
20260510020917 48 11 0.0 0.0 0.00 0.00 0.00 93 1011.3
20260510020403 48 11 0.0 0.0 0.00 0.00 0.00 93 1011.4
20260510015903 48 11 0.0 0.0 0.00 0.00 0.00 93 1011.4
20260510015402 48 11 0.0 0.0 0.00 0.00 0.00 93 1011.3
20260510014904 48 11 0.0 0.0 0.00 0.00 0.00 93 1011.4
20260510014402 49 11 0.0 0.0 0.00 0.00 0.00 93 1011.4
20260510013902 49 11 0.0 0.0 0.00 0.00 0.00 93 1011.3
20260510013331 49 11 0.0 0.0 0.00 0.00 0.00 93 1011.4
20260510012834 49 11 0.0 0.0 0.00 0.00 0.00 93 1011.5
20260510012307 49 11 0.0 0.0 0.00 0.00 0.00 93 1011.5
20260510011803 49 11 0.0 0.0 0.00 0.00 0.00 93 1011.5
20260510011232 49 11 0.0 0.0 0.00 0.00 0.00 92 1011.5
20260510010730 49 11 0.0 0.0 0.00 0.00 0.00 92 1011.5
20260510010231 49 11 0.0 0.0 0.00 0.00 0.00 92 1011.5
20260510005703 49 11 0.0 0.0 0.00 0.00 0.00 92 1011.5
20260510005203 49 11 0.0 0.0 0.00 0.00 0.00 92 1011.5
20260510004645 49 11 0.0 0.0 0.00 0.00 0.00 92 1011.6
20260510004140 49 11 0.0 0.0 0.00 0.00 0.00 92 1011.6
20260510003632 50 11 0.0 0.0 0.00 0.00 0.00 92 1011.6
20260510003130 50 11 0.0 0.0 0.00 0.00 0.00 92 1011.6
20260510002628 50 11 0.0 0.0 0.00 0.00 0.00 92 1011.7
20260510002103 50 11 0.0 0.0 0.00 0.00 0.00 91 1011.8
20260510001602 50 11 0.0 0.0 0.00 0.00 0.00 91 1011.9
20260510001032 50 11 0.0 0.0 0.00 0.00 0.00 91 1011.9
20260510000532 50 11 0.0 0.0 0.00 0.00 0.00 91 1011.9
20260510000035 50 11 0.0 0.0 0.00 0.00 0.00 91 1011.9
20260509235530 50 11 0.0 0.0 0.00 0.00 0.00 91 1012.0
20260509235256 50 11 0.0 0.0 0.00 0.00 0.00 90 1012.0